Location: Brahman Valley
(40.6513°N, 111.8855°W)
Time: 08:14:56
(UTC+00:00)

Tiros 1 despin weight - Pass Details

Date: 16 May 2021
Orbit: 594 x 641 km, 48.2° (Epoch: 22 June)

Event Time Altitude Azimuth Distance (km) Brightness Sun altitude
Rises 08:44:59 0° 296° (WNW) 2,943 ? -27.3°
Enters shadow 08:46:04 - 294° (WNW) 2,532 ? -27.2°
Reaches altitude 10° 08:47:24 10° 291° (WNW) 2,030 - -27.1°
Maximum altitude 08:51:52 46° 218° (SW) 858 - -26.8°
Drops below altitude 10° 08:56:17 10° 146° (SE) 2,006 - -26.4°
Sets 08:58:39 0° 140° (SE) 2,904 - -26.2°
